FW6320 Weather Reports


Display with metric or nautical units.
time (UTC)temp
F
wind
direction
speed
MPH
gust
MPH
rain 1hr
in
rain 24hr
in
rain mn
in
humidity
%
barometer
mb
20260503044019 57 0 0.0 0.0 0.00 0.00 0.00 77 1019.7
20260503043518 57 0 0.0 0.0 0.00 0.00 0.00 77 1019.7
20260503043041 57 0 0.0 0.0 0.00 0.00 0.00 77 1019.8
20260503042519 57 0 0.0 0.0 0.00 0.00 0.00 77 1019.8
20260503042019 57 0 0.0 0.0 0.00 0.00 0.00 77 1019.7
20260503041537 57 0 0.0 0.0 0.00 0.00 0.00 77 1019.7
20260503041019 57 0 0.0 0.0 0.00 0.00 0.00 77 1019.8
20260503040520 57 0 0.0 0.0 0.00 0.00 0.00 77 1019.7
20260503040046 57 0 0.0 0.0 0.00 0.00 0.00 77 1019.8
20260503035519 57 0 0.0 0.0 0.00 0.00 0.00 77 1019.8
20260503035019 57 0 0.0 0.0 0.00 0.00 0.00 77 1019.8
20260503034535 57 0 0.0 0.0 0.00 0.00 0.00 77 1019.7
20260503034020 58 0 0.0 0.0 0.00 0.00 0.00 76 1019.8
20260503033521 58 0 0.0 0.0 0.00 0.00 0.00 77 1019.8
20260503033043 58 0 0.0 0.0 0.00 0.00 0.00 77 1019.8
20260503032519 58 0 0.0 0.0 0.00 0.00 0.00 77 1019.7
20260503032019 58 0 0.0 0.0 0.00 0.00 0.00 77 1019.7
20260503031540 58 0 0.0 0.0 0.00 0.00 0.00 77 1019.7
20260503031019 58 0 0.0 0.0 0.00 0.00 0.00 76 1019.6
20260503030519 58 0 0.0 0.0 0.00 0.00 0.00 76 1019.5
20260503030038 58 0 0.0 0.0 0.00 0.00 0.00 76 1019.5
20260503025519 59 0 0.0 0.0 0.00 0.00 0.00 75 1019.4
20260503025019 59 0 0.0 0.0 0.00 0.00 0.00 75 1019.4
20260503024539 59 0 0.0 0.0 0.00 0.00 0.00 75 1019.4
20260503024020 59 0 0.0 0.0 0.00 0.00 0.00 75 1019.3
20260503023520 60 0 0.0 0.0 0.00 0.00 0.00 75 1019.3
20260503023035 60 0 0.0 0.0 0.00 0.00 0.00 75 1019.2
20260503022523 60 0 0.0 0.0 0.00 0.00 0.00 74 1019.1
20260503022019 60 0 0.0 0.0 0.00 0.00 0.00 74 1019.2
20260503021549 60 0 0.0 0.0 0.00 0.00 0.00 73 1019.2
20260503021019 61 0 0.0 0.0 0.00 0.00 0.00 73 1019.1
20260503020520 61 0 0.0 0.0 0.00 0.00 0.00 73 1019.1
20260503020044 62 0 0.0 0.0 0.00 0.00 0.00 72 1019.1
20260503015524 62 0 0.0 0.0 0.00 0.00 0.00 71 1019.1
20260503015018 62 0 0.0 0.0 0.00 0.00 0.00 70 1019.0
20260503014547 63 0 0.0 0.0 0.00 0.00 0.00 70 1018.9
20260503014018 63 0 0.0 0.0 0.00 0.00 0.00 70 1018.9
20260503013519 64 0 0.0 0.0 0.00 0.00 0.00 69 1018.9
20260503013037 64 0 0.0 0.0 0.00 0.00 0.00 68 1018.9
20260503012518 65 0 0.0 0.0 0.00 0.00 0.00 67 1018.8
20260503012016 66 0 0.0 0.0 0.00 0.00 0.00 66 1018.8
20260503011536 67 0 0.0 0.0 0.00 0.00 0.00 66 1018.8
20260503011023 67 0 0.0 0.0 0.00 0.00 0.00 65 1018.8
20260503010518 68 0 0.0 0.0 0.00 0.00 0.00 64 1018.7
20260503010034 69 0 0.0 0.0 0.00 0.00 0.00 62 1018.7
20260503005522 70 0 0.0 0.0 0.00 0.00 0.00 62 1018.7
20260503005018 70 0 0.0 0.0 0.00 0.00 0.00 61 1018.6
20260503004534 71 0 0.0 0.0 0.00 0.00 0.00 59 1018.6
20260503004018 71 0 0.0 0.0 0.00 0.00 0.00 55 1018.7
20260503003519 72 0 0.0 0.0 0.00 0.00 0.00 53 1018.6
20260503003039 72 0 0.0 0.0 0.00 0.00 0.00 55 1018.5
20260503002517 72 0 0.0 1.0 0.00 0.00 0.00 54 1018.6
20260503002018 73 0 0.0 1.0 0.00 0.00 0.00 51 1018.6
20260503001538 73 0 0.0 1.0 0.00 0.00 0.00 50 1018.6
20260503001017 73 0 0.0 3.0 0.00 0.00 0.00 51 1018.6
20260503000517 73 0 0.0 3.0 0.00 0.00 0.00 49 1018.5
20260503000035 74 190 0.0 2.0 0.00 0.00 0.00 49 1018.6
20260502235518 74 0 0.0 2.0 0.00 0.00 0.00 50 1018.7
20260502235018 74 0 0.0 2.0 0.00 0.00 0.00 50 1018.6
20260502234541 74 0 0.0 1.0 0.00 0.00 0.00 48 1018.7
20260502234016 74 0 0.0 3.0 0.00 0.00 0.00 48 1018.7
20260502233515 74 0 0.0 3.0 0.00 0.00 0.00 49 1018.7
20260502233034 74 190 0.0 1.0 0.00 0.00 0.00 51 1018.8
20260502232518 74 0 0.0 1.0 0.00 0.00 0.00 50 1018.8
20260502232018 74 0 0.0 1.0 0.00 0.00 0.00 50 1018.8
20260502231541 74 0 0.0 1.0 0.00 0.00 0.00 51 1018.8
20260502231016 74 0 0.0 2.0 0.00 0.00 0.00 50 1018.8
20260502230518 75 0 0.0 3.0 0.00 0.00 0.00 48 1018.9
20260502230036 76 0 0.0 5.0 0.00 0.00 0.00 47 1018.9
20260502225521 76 191 1.0 6.0 0.00 0.00 0.00 47 1018.9
20260502225015 76 0 1.0 6.0 0.00 0.00 0.00 45 1018.9
20260502224535 76 244 0.0 3.0 0.00 0.00 0.00 46 1018.9
20260502224018 76 242 0.0 4.0 0.00 0.00 0.00 48 1019.0
20260502223517 77 0 1.0 4.0 0.00 0.00 0.00 44 1019.0
20260502223040 77 0 0.0 7.0 0.00 0.00 0.00 46 1019.2
20260502222519 76 0 1.0 7.0 0.00 0.00 0.00 48 1019.1
20260502222021 76 155 0.0 5.0 0.00 0.00 0.00 47 1019.2
20260502221540 76 166 1.0 5.0 0.00 0.00 0.00 46 1019.2
20260502221019 76 171 0.0 5.0 0.00 0.00 0.00 47 1019.3
20260502220518 76 0 1.0 4.0 0.00 0.00 0.00 48 1019.2
20260502220050 76 0 0.0 2.0 0.00 0.00 0.00 46 1019.3
20260502215521 76 0 0.0 7.0 0.00 0.00 0.00 45 1019.2
20260502215018 76 0 0.0 7.0 0.00 0.00 0.00 49 1019.3
20260502214541 76 0 1.0 7.0 0.00 0.00 0.00 49 1019.4
20260502214024 75 0 0.0 5.0 0.00 0.00 0.00 49 1019.4
20260502213521 75 144 1.0 4.0 0.00 0.00 0.00 47 1019.5
20260502213042 75 143 0.0 7.0 0.00 0.00 0.00 47 1019.6
20260502212521 75 0 2.0 7.0 0.00 0.00 0.00 46 1019.7
20260502212020 75 150 2.0 8.0 0.00 0.00 0.00 48 1019.7
20260502211536 75 0 2.0 8.0 0.00 0.00 0.00 50 1019.8
20260502211020 75 146 2.0 8.0 0.00 0.00 0.00 47 1019.8
20260502210518 76 0 0.0 7.0 0.00 0.00 0.00 47 1019.9
20260502210036 75 125 2.0 7.0 0.00 0.00 0.00 47 1019.9
20260502205520 75 0 0.0 4.0 0.00 0.00 0.00 47 1020.0
20260502205022 74 350 0.0 4.0 0.00 0.00 0.00 49 1020.0
20260502204542 74 227 1.0 3.0 0.00 0.00 0.00 46 1020.2
20260502204021 74 0 0.0 11.0 0.00 0.00 0.00 48 1020.2
20260502203521 75 265 3.0 11.0 0.00 0.00 0.00 46 1020.2
20260502203057 75 178 1.0 8.0 0.00 0.00 0.00 44 1020.3
20260502202518 75 284 1.0 8.0 0.00 0.00 0.00 47 1020.3
20260502202019 75 284 1.0 4.0 0.00 0.00 0.00 47 1020.3
20260502201544 74 247 0.0 4.0 0.00 0.00 0.00 53 1020.4
20260502201024 74 304 1.0 5.0 0.00 0.00 0.00 44 1020.5
20260502200520 74 288 0.0 9.0 0.00 0.00 0.00 44 1020.5
20260502200036 74 283 4.0 9.0 0.00 0.00 0.00 43 1020.6
20260502195520 74 0 0.0 9.0 0.00 0.00 0.00 52 1020.6
20260502195024 74 0 1.0 13.0 0.00 0.00 0.00 44 1020.5
20260502194548 74 285 3.0 13.0 0.00 0.00 0.00 45 1020.6
20260502194020 74 191 2.0 13.0 0.00 0.00 0.00 46 1020.7
20260502193525 74 255 0.0 7.0 0.00 0.00 0.00 45 1020.7
20260502193035 73 248 2.0 7.0 0.00 0.00 0.00 49 1020.7
20260502192519 74 271 2.0 6.0 0.00 0.00 0.00 47 1020.7
20260502192018 74 0 0.0 7.0 0.00 0.00 0.00 48 1020.9
20260502191538 74 150 1.0 7.0 0.00 0.00 0.00 45 1020.9
20260502191020 74 296 2.0 10.0 0.00 0.00 0.00 44 1020.9
20260502190518 74 310 3.0 10.0 0.00 0.00 0.00 46 1020.8
20260502190039 74 198 2.0 9.0 0.00 0.00 0.00 47 1021.0
20260502185519 73 267 1.0 7.0 0.00 0.00 0.00 44 1021.0
20260502185020 73 287 0.0 10.0 0.00 0.00 0.00 47 1021.1
20260502184540 74 270 4.0 10.0 0.00 0.00 0.00 44 1021.2
20260502184018 73 0 0.0 4.0 0.00 0.00 0.00 44 1021.3
20260502183522 74 284 1.0 5.0 0.00 0.00 0.00 42 1021.4
20260502183036 74 0 0.0 8.0 0.00 0.00 0.00 45 1021.5
20260502182524 74 233 2.0 8.0 0.00 0.00 0.00 46 1021.5
20260502182016 73 286 1.0 7.0 0.00 0.00 0.00 49 1021.6
20260502181542 74 291 2.0 7.0 0.00 0.00 0.00 45 1021.6
20260502181020 73 0 0.0 7.0 0.00 0.00 0.00 47 1021.7
20260502180520 73 350 2.0 7.0 0.00 0.00 0.00 44 1021.8
20260502170518 71 0 1.0 5.0 0.00 0.00 0.00 45 1022.3
20260502164019 71 0 0.0 4.0 0.00 0.00 0.00 46 1022.6
20260502163518 70 0 0.0 4.0 0.00 0.00 0.00 45 1022.4
20260502163059 69 0 0.0 7.0 0.00 0.00 0.00 46 1022.5
20260502162521 69 0 2.0 7.0 0.00 0.00 0.00 46 1022.5
20260502162020 69 267 1.0 7.0 0.00 0.00 0.00 45 1022.4
20260502161543 69 298 1.0 5.0 0.00 0.00 0.00 48 1022.4
20260502161019 69 296 2.0 8.0 0.00 0.00 0.00 48 1022.4
20260502160522 69 236 0.0 8.0 0.00 0.00 0.00 51 1022.4
20260502152017 67 0 0.0 4.0 0.00 0.00 0.00 58 1022.2
20260502151538 67 0 0.0 4.0 0.00 0.00 0.00 58 1022.3
20260502151017 66 286 1.0 4.0 0.00 0.00 0.00 58 1022.3
20260502150519 66 0 0.0 3.0 0.00 0.00 0.00 61 1022.3
20260502130520 51 0 0.0 0.0 0.00 0.00 0.00 94 1021.6
20260502123519 48 0 0.0 0.0 0.00 0.00 0.00 93 1021.2
20260502123035 48 0 0.0 0.0 0.00 0.00 0.00 93 1021.1
20260502122520 48 0 0.0 0.0 0.00 0.00 0.00 92 1021.0
20260502122022 48 0 0.0 0.0 0.00 0.00 0.00 92 1020.9
20260502121535 48 0 0.0 0.0 0.00 0.00 0.00 93 1020.8
20260502121018 48 0 0.0 0.0 0.00 0.00 0.00 93 1020.7
20260502120519 48 0 0.0 0.0 0.00 0.00 0.00 93 1020.6
20260502115522 48 0 0.0 2.0 0.00 0.00 0.00 93 1020.5
20260502115020 48 0 0.0 2.0 0.00 0.00 0.00 93 1020.5
20260502114539 47 0 0.0 1.0 0.00 0.00 0.00 92 1020.4
20260502114016 48 0 0.0 1.0 0.00 0.00 0.00 92 1020.3
20260502113524 48 0 0.0 2.0 0.00 0.00 0.00 92 1020.3
20260502113036 48 0 0.0 4.0 0.00 0.00 0.00 93 1020.2
20260502112516 48 0 1.0 4.0 0.00 0.00 0.00 93 1020.1
20260502112021 48 0 0.0 4.0 0.00 0.00 0.00 93 1020.1
20260502111535 48 0 1.0 4.0 0.00 0.00 0.00 93 1020.0
20260502111020 48 0 0.0 0.0 0.00 0.00 0.00 93 1019.9
20260502110520 47 0 0.0 0.0 0.00 0.00 0.00 93 1019.9
20260502110036 47 0 0.0 0.0 0.00 0.00 0.00 93 1019.9
20260502105520 46 0 0.0 0.0 0.00 0.00 0.00 92 1019.8
20260502105019 46 0 0.0 0.0 0.00 0.00 0.00 92 1019.8
20260502104535 46 0 0.0 0.0 0.00 0.00 0.00 92 1019.7
20260502104019 46 0 0.0 0.0 0.00 0.00 0.00 92 1019.7
20260502103517 46 0 0.0 0.0 0.00 0.00 0.00 91 1019.7
20260502103041 46 0 0.0 0.0 0.00 0.00 0.00 91 1019.6
20260502102519 47 0 0.0 0.0 0.00 0.00 0.00 91 1019.7
20260502102017 47 0 0.0 0.0 0.00 0.00 0.00 91 1019.7
20260502101535 48 0 0.0 0.0 0.00 0.00 0.00 91 1019.6
20260502101016 48 0 0.0 0.0 0.00 0.00 0.00 92 1019.6
20260502100519 48 0 0.0 0.0 0.00 0.00 0.00 92 1019.4
20260502091017 48 0 0.0 0.0 0.00 0.00 0.00 91 1019.3
20260502090518 48 0 0.0 0.0 0.00 0.00 0.00 91 1019.4
20260502071020 51 0 0.0 0.0 0.00 0.00 0.00 91 1019.7
20260502070518 51 0 0.0 0.0 0.00 0.00 0.00 91 1019.8
20260502070047 51 0 0.0 0.0 0.00 0.00 0.00 90 1019.7
20260502065516 51 0 0.0 0.0 0.00 0.00 0.00 90 1019.7
20260502065019 51 0 0.0 0.0 0.00 0.00 0.00 90 1019.6
20260502064542 51 0 0.0 0.0 0.00 0.00 0.00 90 1019.7
20260502064022 51 0 0.0 0.0 0.00 0.00 0.00 91 1019.6
20260502063519 51 0 0.0 0.0 0.00 0.00 0.00 91 1019.6
20260502063036 51 0 0.0 0.0 0.00 0.00 0.00 90 1019.7
20260502062516 52 0 0.0 0.0 0.00 0.00 0.00 90 1019.6
20260502062018 52 0 0.0 0.0 0.00 0.00 0.00 90 1019.6
20260502061538 52 0 0.0 0.0 0.00 0.00 0.00 90 1019.7
20260502061021 52 0 0.0 0.0 0.00 0.00 0.00 90 1019.7
20260502060516 52 0 0.0 0.0 0.00 0.00 0.00 90 1019.6
20260502060035 52 0 0.0 0.0 0.00 0.00 0.00 90 1019.6
20260502055519 52 0 0.0 0.0 0.00 0.00 0.00 90 1019.7
20260502055018 52 0 0.0 0.0 0.00 0.00 0.00 89 1019.6
20260502054535 52 0 0.0 0.0 0.00 0.00 0.00 89 1019.6
20260502054020 53 0 0.0 0.0 0.00 0.00 0.00 89 1019.5
20260502053519 53 0 0.0 0.0 0.00 0.00 0.00 89 1019.5
20260502053035 53 0 0.0 0.0 0.00 0.00 0.00 89 1019.4
20260502052517 53 0 0.0 0.0 0.00 0.00 0.00 89 1019.4
20260502052017 53 0 0.0 0.0 0.00 0.00 0.00 89 1019.5
20260502051542 53 0 0.0 0.0 0.00 0.00 0.00 89 1019.4
20260502051018 53 0 0.0 0.0 0.00 0.00 0.00 88 1019.3
20260502050517 54 0 0.0 0.0 0.00 0.00 0.00 88 1019.3
20260502050041 54 0 0.0 0.0 0.00 0.00 0.00 87 1019.2
20260502045516 54 0 0.0 0.0 0.00 0.00 0.00 87 1019.2
20260502045019 54 0 0.0 0.0 0.00 0.00 0.00 87 1019.2
20260502044539 55 0 0.0 0.0 0.00 0.00 0.00 87 1019.1